Location: *
(67.0333°N, 27.8500°E)
Time: 10:56:34
(UTC+00:00)

Daily predictions for brighter satellites

Satellite Brightness Start Highest point End
(mag) Time Altitude Azimuth Time Altitude Azimuth Time Altitude Azimuth
Meteor 1-20 Rocket 4.4 12:46:35 10° NNW 12:52:22 87° WSW 12:58:01 10° SSE
Cosmos 468 Rocket 4.5 12:48:44 10° WNW 12:53:38 40° N 12:58:32 10° E
PAYLOAD A 4.4 12:49:11 10° SSE 12:54:37 79° WSW 13:00:07 10° NNW
Cosmos 1842 Rocket 4.2 12:50:39 10° SW 12:54:54 49° WNW 12:59:09 10° NNE
Cosmos 1943 Rocket 2.2 12:51:24 10° WNW 12:57:04 65° NNE 13:02:42 10° E
Cosmos 1992 Rocket 4.0 12:52:14 10° NW 12:57:30 87° NE 13:02:46 10° SE
Cosmos 1340 2.6 12:56:04 10° NNW 12:59:53 78° ENE 13:03:41 10° SSE
COSMOS 2455 3.7 12:54:41 10° SSW 13:00:16 41° SE 13:05:52 10° ENE
Cosmos 1356 Rocket 3.7 12:56:41 10° SSW 13:00:59 72° WNW 13:05:15 10° NNE
Cosmos 1743 4.2 12:58:17 10° N 13:01:00 18° NE 13:03:42 10° E
Meteor PRIRODA 3.7 13:00:12 10° SE 13:03:48 59° ENE 13:07:25 10° NNW
ADEOS 4.5 12:59:22 10° S 13:04:30 53° WSW 13:09:39 10° NNW
Envisat 3.9 13:00:56 10° E 13:05:10 27° NE 13:09:24 10° NNW
Cosmos 2237 Rocket 4.2 13:04:36 10° E 13:05:11 10° E 13:05:46 10° E
Cosmos 1933 4.0 13:02:06 10° SSE 13:05:51 40° E 13:09:39 10° NNE
Cosmos 2322 Rocket 2.8 13:00:34 10° SSW 13:05:56 47° SE 13:11:21 10° NE
Cosmos 1697 Rocket 2.8 13:01:55 10° WSW 13:07:36 83° NNW 13:13:17 10° ENE
Resurs 01 Rocket 3.6 13:05:47 10° NNE 13:07:43 13° N 13:09:39 10° NNW
Radarsat Rocket 4.0 13:03:29 10° SE 13:09:13 61° NE 13:15:07 10° NNW
Cosmos 1328 Rocket 3.7 13:05:02 10° S 13:09:18 61° E 13:13:35 10° NNE
Cosmos 2219 Rocket 3.8 13:05:28 10° SSE 13:09:22 20° ESE 13:13:18 10° ENE
Cosmos 1536 3.5 13:08:17 10° NNW 13:12:00 33° NE 13:15:40 10° ESE
Cosmos 1656 3.7 13:07:10 10° WSW 13:12:37 69° NNW 13:18:05 10° ENE
Cosmos 1500 3.6 13:09:49 10° NNW 13:13:26 39° ENE 13:17:00 10° SE
Cosmos 2333 Rocket 3.7 13:10:38 10° SSE 13:14:51 21° ESE 13:19:05 10° ENE
ASTEX 1 3.7 13:10:33 10° N 13:15:23 48° E 13:20:09 10° SSE
Cosmos 773 Rocket 4.5 13:10:27 10° WSW 13:15:38 51° NNW 13:20:51 10° NE
Cosmos 2360 4.3 13:10:11 10° SW 13:15:57 90° NW 13:21:45 10° ENE
Cosmos 1151 Rocket 3.1 13:11:45 10° S 13:16:05 65° ESE 13:20:23 10° NNE
Helios 1A Rocket 3.2 13:13:13 10° SE 13:17:08 46° NE 13:21:02 10° NNW
SL-16 R/B 2.6 13:12:04 10° SSW 13:17:37 55° SE 13:23:09 10° NE
PAYLOAD B 4.2 13:12:51 10° SE 13:18:20 72° ENE 13:23:51 10° NNW
CZ-4C R/B 3.2 13:15:12 10° NNE 13:18:42 70° WNW 13:22:09 10° SSW
ATLAS 2AS CENTAUR R/B 4.0 13:11:49 10° SSW 13:18:59 37° SE 13:26:01 10° ENE
Cosmos 923 Rocket 4.2 13:13:53 10° WSW 13:19:06 69° NW 13:24:23 10° NE
ALOS 2 4.1 13:15:37 10° NNE 13:19:16 26° NW 13:22:55 10° W
CZ-2C R/B 2.8 13:14:43 10° S 13:19:28 66° WSW 13:24:08 10° NNW
Cosmos 1346 Rocket 3.0 13:22:21 10° NNW 13:26:21 76° WSW 13:30:22 10° SSE
Cosmos 1869 4.1 13:25:46 10° SW 13:29:36 47° WNW 13:33:29 10° NNE
Okean 2 Rocket 4.2 13:26:40 10° NNW 13:30:13 22° NE 13:33:47 10° E
Aureole 3 Rocket 4.1 13:28:51 10° N 13:30:48 14° NE 13:32:36 10° ENE
CSL-04 Rocket 4.5 13:26:19 10° E 13:30:49 28° NNE 13:35:21 10° NNW
Cosmos 1570 Rocket 4.4 13:27:19 10° WNW 13:32:21 43° NNE 13:37:22 10° E
SeaSat 1 2.8 13:28:17 10° ENE 13:33:04 49° N 13:37:50 10° WNW
Aureole 2 Rocket 3.4 13:30:09 10° NW 13:33:07 27° NNE 13:35:58 10° ENE
CZ-4C R/B 3.8 13:30:47 11° NE 13:33:27 28° E 13:36:16 10° SSE
Cosmos 405 Rocket 4.0 13:31:41 10° N 13:34:24 19° NE 13:37:08 10° E
Cosmos 2221 3.7 13:31:30 10° WSW 13:35:35 36° NW 13:39:39 10° NNE
Sich 1 Rocket 4.4 13:33:24 10° NNW 13:37:16 28° NE 13:41:05 10° ESE
Cosmos 2297 3.9 13:32:38 10° NW 13:38:24 80° SW 13:44:06 10° SE
Cosmos 1484 Rocket 2.9 13:35:05 10° SSE 13:39:07 89° ENE 13:43:10 10° NNW
Cosmos 1455 4.2 13:36:38 10° W 13:39:23 19° NW 13:42:09 10° N
Cosmos 1763 Rocket 3.8 13:35:04 10° NW 13:39:57 44° NNE 13:44:51 10° E
SAR-Lupe-4 4.3 13:36:41 11° NNE 13:39:57 37° E 13:43:20 10° S
H-2A R/B 3.4 13:36:52 10° ENE 13:39:59 18° NNE 13:43:14 10° NNW
CSL-04 DEB 4.4 13:37:34 10° NNE 13:41:33 87° WNW 13:45:32 10° SSW
NOAA 6 4.0 13:37:47 10° SE 13:42:54 74° ENE 13:48:03 10° NNW
Cosmos 1782 3.4 13:39:16 10° SSE 13:42:57 37° E 13:46:31 11° NNE
Meteor 1-31 Rocket 3.5 13:39:32 10° S 13:43:22 57° WSW 13:47:16 10° NNW
ERS-2 2.3 13:40:55 10° NNE 13:44:35 70° WNW 13:48:14 10° SW
H-2A R/B 3.9 13:40:37 10° S 13:44:56 45° W 13:49:11 10° NNW
Cosmos 1515 Rocket 3.5 13:40:58 10° S 13:45:19 77° ESE 13:49:43 10° NNE
Cosmos 1441 Rocket 3.6 13:42:07 10° NNW 13:45:47 38° NE 13:49:22 10° ESE
Cosmos 2263 4.3 13:40:06 10° WNW 13:45:54 70° NNE 13:51:43 10° ESE
UNK 3.8 13:42:00 10° NNE 13:46:44 87° WNW 13:51:27 10° SSW
Cosmos 1707 Rocket 4.4 13:43:24 10° SSE 13:47:23 32° E 13:51:15 11° NNE
FENGYUN 3A 3.7 13:41:57 10° SSE 13:47:23 86° ENE 13:52:50 10° NNW
Cosmos 1602 4.3 13:44:06 10° NNW 13:47:57 62° WSW 13:51:50 10° S
ARGOS 4.4 13:44:38 11° ENE 13:48:16 21° NNE 13:52:08 10° NNW
Ariane Rocket 4.1 13:44:40 10° E 13:48:38 24° NNE 13:52:36 10° NNW
Meteor 1-28 Rocket 4.2 13:45:51 12° NE 13:48:49 28° E 13:52:09 10° SSE
METEOR-M 4.2 13:43:29 10° SSE 13:48:51 89° ENE 13:54:15 10° NNW
Tsikada Rocket 4.1 13:43:42 10° S 13:50:03 71° E 13:56:21 10° NNE
SMAP 3.2 13:51:34 10° SE 13:56:04 49° NE 14:00:36 10° NNW
Cosmos 1908 Rocket 3.7 13:52:02 10° NNW 13:56:22 49° ENE 14:00:38 10° SE
Cosmos 1666 2.9 13:53:36 10° NNW 13:57:15 45° ENE 14:00:53 10° SE
CZ-4B DEB 4.5 13:51:52 10° SSE 13:57:21 76° WSW 14:02:54 10° NNW
Cosmos 1315 Rocket 3.4 13:54:47 10° SSE 13:58:36 40° E 14:01:58 13° NNE
APEX 2.9 13:55:47 10° W 13:58:43 59° NNW 14:01:22 16° ENE
Cosmos 1400 Rocket 2.8 13:54:58 10° S 13:58:59 69° ESE 14:02:40 12° NNE
Cosmos 2279 Rocket 4.1 13:52:58 10° NNW 13:59:16 85° WSW 14:05:33 10° SSE
H-2A R/B 3.1 13:57:27 10° SE 14:00:55 39° ENE 14:04:25 10° NNW
Okean O Rocket 1.6 13:56:42 10° SSE 14:01:03 85° ENE 14:05:28 10° NNW
Meteor 1-11 Rocket 3.9 13:55:23 10° NNW 14:01:25 88° ENE 14:07:24 10° SSE
PSLV R/B 4.4 13:59:26 10° S 14:03:23 63° WSW 14:07:26 10° NNW
SJ-7 4.4 14:00:52 10° SE 14:04:58 67° ENE 14:09:02 10° NNW
Meteor 1-5 Rocket 4.3 13:59:25 10° NNW 14:05:03 82° WSW 14:10:29 10° SSE
H-2A R/B 2.0 14:01:35 11° NNE 14:05:30 68° ESE 14:09:37 10° SSW
SL-08 R/B 3.5 14:00:50 10° NNE 14:05:47 65° ESE 14:10:38 10° S
Cosmos 1975 3.6 14:02:56 10° N 14:06:29 29° NE 14:10:02 10° ESE
COSMOS 2428 3.6 14:02:10 10° S 14:07:13 34° ESE 14:11:18 15° ENE
IRS-1C Rocket 4.1 14:02:12 10° SE 14:07:25 65° ENE 14:12:39 10° NNW
SJ-12 4.3 14:03:55 10° SSE 14:08:04 71° WSW 14:12:15 10° NNW
CZ-4 R/B 2.2 14:04:56 10° ESE 14:08:09 26° NE 14:11:23 10° N
ALOS 2.5 14:04:14 10° SSE 14:08:55 78° WSW 14:13:38 10° NNW
Cosmos 158 Rocket 4.1 14:04:34 10° WSW 14:09:30 62° NW 14:13:30 15° NE
Cosmos 292 Rocket 4.5 14:05:44 10° NW 14:10:33 60° WSW 14:15:21 10° SSE
NOSS 3-1 (C) 4.3 14:04:23 10° W 14:10:53 63° SSW 14:18:35 10° ESE
Cosmos 1048 Rocket 4.1 14:05:56 10° SSW 14:11:19 72° SE 14:15:46 15° NE
Cosmos 841 Rocket 3.8 14:06:25 10° NW 14:11:27 45° NNE 14:16:26 10° E
Cosmos 2228 Rocket 3.2 14:07:31 10° SSW 14:12:07 85° ESE 14:16:43 10° NNE
Cosmos 2278 Rocket 4.0 14:07:09 10° NW 14:12:18 36° WSW 14:17:25 10° S
Cosmos 1544 4.3 14:10:13 10° N 14:13:02 21° NE 14:14:47 15° E
YAOGAN 6 3.5 14:11:29 10° ESE 14:14:36 27° NE 14:17:46 10° N
Cosmos 1733 Rocket 3.2 14:10:51 10° NNW 14:15:16 81° WSW 14:19:41 10° SSE
Cosmos 921 Rocket 3.0 14:11:20 10° NW 14:15:36 85° WSW 14:19:57 10° SSE
Cosmos 1656 Rocket 3.6 14:10:18 10° WNW 14:15:45 69° NNE 14:21:14 10° ESE
Meteor 1-26 Rocket 4.2 14:11:21 10° S 14:17:00 75° ESE 14:22:29 10° NNE
Cosmos 1606 2.8 14:13:16 10° SSW 14:17:06 76° WNW 14:20:45 12° NNE
CZ-4B R/B 3.4 14:12:06 10° SSE 14:17:33 76° WSW 14:23:08 10° NNW
MOZ.5/SAFIR/RUBIN 5/SL-8 4.3 14:13:17 10° NNE 14:17:58 58° WNW 14:22:35 10° SW
Cosmos 2369 3.9 14:12:17 10° W 14:18:00 63° NNW 14:22:36 16° ENE
CZ-4B R/B 4.5 14:14:41 10° SSW 14:18:05 34° W 14:21:39 10° NNW
Cosmos 2344 4.3 14:10:05 10° W 14:18:09 70° S 14:28:51 10° ESE
Cosmos 1269 Rocket 4.3 14:13:09 10° SSW 14:18:18 53° ESE 14:22:21 16° NE
Lacrosse 4 Rocket 1.3 14:15:11 10° WNW 14:19:20 83° NNE 14:23:29 10° E
CZ-4B R/B 2.2 14:17:34 18° NE 14:19:46 36° E 14:23:01 10° SSE
Cosmos 2360 Rocket 2.4 14:14:21 10° SSW 14:19:59 64° SE 14:24:24 17° NE
S3M 4.3 14:15:01 10° NNW 14:20:56 41° NE 14:26:45 10° ESE
YAOGAN 1 3.3 14:17:46 10° ESE 14:21:35 31° NE 14:25:25 10° NNW
Cosmos 540 Rocket 3.8 14:16:44 10° NW 14:21:42 45° NNE 14:26:09 12° E
Cosmos 2369 Rocket 2.2 14:16:29 10° WNW 14:22:09 89° NE 14:27:50 10° SE
USA 229 DEB 4.4 14:15:28 10° W 14:22:18 61° SSW 14:29:29 10° ESE
USA 229 4.4 14:15:34 10° W 14:22:24 61° SSW 14:29:35 10° ESE
Cosmos 2322 4.1 14:17:45 10° SSW 14:23:16 51° SE 14:27:26 17° ENE
Cosmos 1680 Rocket 4.0 14:19:10 10° WSW 14:24:22 51° NNW 14:28:20 17° NE
Cosmos 2278 3.9 14:19:21 10° W 14:25:05 64° NNW 14:29:27 18° ENE
SAR-Lupe-1 4.0 14:22:24 15° NNE 14:25:22 76° ESE 14:28:57 10° SSW
Okean 1 Rocket 4.2 14:22:44 10° N 14:26:12 22° NE 14:27:48 19° ENE
Cosmos 1980 Rocket 2.3 14:20:30 10° WSW 14:26:13 68° NNW 14:30:34 18° ENE
SL-16 R/B 2.7 14:20:25 10° NNE 14:26:36 74° WNW 14:32:45 10° SW
NOSS 3-1 (A) 4.2 14:21:22 10° W 14:27:51 64° SSW 14:35:34 10° ESE
Okean-O 2.7 14:23:55 10° SE 14:28:14 52° ENE 14:32:34 10° NNW
Terra 3.7 14:27:38 12° NNE 14:29:33 15° N 14:32:10 10° NW
Nadezhda 4 Rocket 4.4 14:25:09 10° SSE 14:31:02 43° E 14:36:53 10° NNE
Cosmos 1553 Rocket 4.2 14:25:03 10° NNW 14:31:16 51° ENE 14:37:30 10° SE
NOSS 3-4 (A) 4.3 14:25:55 10° SSW 14:31:42 42° SE 14:36:37 16° E
NOSS 3-4 (C) 4.3 14:26:02 10° SSW 14:31:48 42° SE 14:36:43 16° E
Cosmos 468 Rocket 3.9 14:31:10 10° NW 14:36:20 64° NE 14:41:31 10° ESE
CORIOLIS 4.1 14:31:57 10° SE 14:37:24 76° ENE 14:42:51 10° NNW
Cosmos 1743 2.8 14:33:51 10° NNW 14:37:39 51° ENE 14:41:28 10° SE
NOSS 2-2 (C) 4.3 14:34:58 10° SW 14:38:55 47° SSE 14:42:38 17° E
Cosmos 1943 Rocket 2.4 14:35:24 10° NW 14:41:05 76° SW 14:46:43 10° SE
SL-16 R/B 3.7 14:37:51 10° SE 14:41:27 17° E 14:42:26 17° E
Cosmos 1933 4.1 14:38:28 10° SW 14:42:24 50° WNW 14:46:01 12° NNE
Cosmos 2151 Rocket 4.1 14:38:23 10° NNW 14:42:31 36° NE 14:46:37 10° ESE
Resurs 01 Rocket 3.3 14:42:32 16° NNE 14:42:48 16° NNE 14:45:32 10° NNW
Envisat 3.0 14:38:33 10° SE 14:43:34 63° ENE 14:48:37 10° NNW
COSMOS 2455 2.9 14:39:44 10° WSW 14:45:46 76° SSE 14:50:01 21° ENE
Cosmos 2237 Rocket 3.1 14:42:40 10° S 14:47:35 31° ESE 14:50:14 21° ENE
Cosmos 1536 3.2 14:44:44 10° NNW 14:48:46 67° WSW 14:52:44 10° S
Cosmos 1500 4.2 14:45:30 10° NNW 14:49:09 48° W 14:52:47 10° S
Cosmos 2251 Rocket 4.1 14:44:24 10° S 14:49:15 38° ESE 14:51:58 23° ENE
Cosmos 2322 Rocket 2.2 14:44:07 10° WSW 14:49:48 83° NNW 14:53:38 22° ENE
CZ-2D R/B 4.0 14:49:52 25° E 14:50:54 29° NE 14:54:15 10° N
Cosmos 1782 Rocket 3.4 14:47:28 10° NNW 14:51:52 74° ENE 14:56:13 10° SSE
RESURS DK-1 3.1 14:48:08 10° SSW 14:51:59 38° SE 14:53:44 26° E
Cosmos 1697 Rocket 2.9 14:46:28 10° W 14:52:04 59° N 14:55:35 23° ENE
Cosmos 2219 Rocket 2.5 14:46:49 10° SSW 14:52:16 51° SE 14:55:41 23° ENE
Helios 1A Rocket 3.9 14:48:24 10° S 14:52:22 48° WSW 14:56:20 10° NNW
Feng Yun 1-1 Rocket 4.3 14:48:29 10° SSE 14:53:55 82° WSW 14:59:28 10° NNW
Cosmos 1151 Rocket 4.3 14:49:53 10° WSW 14:53:57 37° NW 14:57:46 11° NNE
Cosmos 220 Rocket 4.4 14:50:03 10° NW 14:54:23 46° NNE 14:56:47 24° E
ASTEX 1 4.2 14:49:42 10° N 14:54:31 52° WNW 14:59:18 10° SW
Cosmos 1939 Rocket 3.5 14:54:19 26° E 14:55:31 31° NE 14:58:58 10° NNW
Cosmos 1689 Rocket 2.5 14:55:06 36° ENE 14:55:47 43° ESE 14:58:42 10° S
Cosmos 1656 3.8 14:51:28 10° WNW 14:56:51 57° N 15:00:06 24° ENE
Cosmos 1184 Rocket 4.3 14:54:32 10° N 14:56:12 21° NNE 14:56:12 21° NNE
FengYun 1-2 T 4.2 14:52:23 10° SE 14:57:51 66° ENE 15:03:23 10° NNW
Cosmos 2333 Rocket 2.5 14:52:31 10° SSW 14:58:08 55° SE 15:01:32 24° ENE
Meteor 2-6 Rocket 4.1 14:53:14 10° S 14:58:40 73° ESE 15:03:30 14° NNE
NOSS 2-2 (E) 4.3 14:54:55 10° WSW 14:59:04 53° SSE 15:02:34 20° E
Cosmos 2360 4.4 14:54:56 10° W 15:00:39 62° N 15:04:06 24° ENE
Cosmos 1812 2.8 14:57:13 10° S 15:01:01 53° E 15:02:56 26° NE
Cosmos 1814 Rocket 4.1 14:56:09 10° NW 15:01:22 58° NNE 15:05:17 17° ESE
SL-16 R/B 2.3 14:55:59 10° WSW 15:01:41 76° NNW 15:05:14 24° ENE
Lacrosse 5 rocket 3.5 14:59:13 10° SSW 15:01:51 16° SSE 15:03:57 12° SE
Cosmos 2208 Rocket 4.1 14:56:33 10° NW 15:01:58 64° NE 15:07:01 12° ESE
Landsat 5 3.4 14:59:44 18° NNE 15:02:41 78° WNW 15:06:46 10° SSW
Cosmos 1417 Rocket 4.4 14:57:27 10° NNW 15:03:35 64° ENE 15:09:41 10° SE
AQUARIUS 4.3 15:00:53 10° SSE 15:05:24 80° WSW 15:09:58 10° NNW
CZ-4C R/B 3.4 15:04:28 20° N 15:06:27 52° WNW 15:09:32 10° SW
Aureole 2 Rocket 2.3 15:04:25 10° NW 15:07:44 52° NE 15:08:24 43° E
Cosmos 494 Rocket 4.0 15:02:29 10° SW 15:07:47 90° NE 15:11:00 24° NE
ATLAS 2AS CENTAUR R/B 3.3 15:01:14 10° SW 15:09:07 61° SSE 15:14:21 22° E
Okean 2 Rocket 3.1 15:04:44 10° NNW 15:09:12 60° ENE 15:13:40 10° SE
Cosmos 2315 Rocket 4.3 15:03:41 10° NNW 15:09:46 44° NE 15:15:47 10° SE
Cosmos 1862 Rocket 3.6 15:05:51 10° S 15:10:12 62° E 15:13:01 22° NNE
SeaSat 1 2.5 15:07:08 22° E 15:10:17 63° NNE 15:15:11 10° WNW
CSL-04 Rocket 3.6 15:05:14 10° SE 15:10:27 60° NE 15:15:46 10° NNW
Cosmos 405 Rocket 2.6 15:07:30 10° NNW 15:11:11 57° ENE 15:14:51 10° SE
CZ-2C R/B 3.9 15:11:41 25° NE 15:12:01 25° NE 15:15:56 10° NNW
SAR-Lupe-4 4.3 15:11:00 18° N 15:13:26 50° WNW 15:16:56 10° SW
Cosmos 1703 Rocket 4.1 15:10:12 10° SSE 15:14:20 37° E 15:15:32 31° ENE
Cosmos 1570 Rocket 3.9 15:09:58 10° NW 15:15:17 73° NE 15:20:10 12° SE
Sich 1 Rocket 3.5 15:11:37 10° NNW 15:16:04 86° ENE 15:20:29 10° SSE
Aureole 1 Rocket 4.1 15:13:30 10° SSE 15:15:33 22° SE 15:15:33 22° SE
ERS-2 4.1 15:15:24 13° N 15:17:44 22° NW 15:20:36 10° W
H-2A R/B 2.7 15:17:29 29° ENE 15:18:18 31° NE 15:22:36 10° NNW
Cosmos 1782 3.5 15:15:19 10° SW 15:19:13 52° WNW 15:22:07 17° N
Aureole 3 Rocket 2.3 15:15:57 10° NNW 15:19:17 53° ENE 15:19:31 51° E
Cosmos 1980 4.2 15:14:21 10° SSW 15:19:39 43° ESE 15:21:56 29° ENE
NOAA 12 4.2 15:14:38 10° SSE 15:19:57 82° WSW 15:25:16 10° NNW
SJ-6B 4.3 15:22:07 23° NNE 15:22:07 23° NNE 15:24:33 10° NNW
CZ-4 R/B 4.3 15:17:21 10° SE 15:21:30 69° ENE 15:25:41 10° NNW
Cosmos 192 4.3 15:16:46 10° NW 15:21:47 81° NE 15:26:30 11° SE
Cosmos 1441 Rocket 4.0 15:18:08 10° NNW 15:21:54 53° WSW 15:25:36 10° S
Cosmos 1763 Rocket 3.3 15:17:12 10° NW 15:22:19 83° NE 15:27:27 10° SE
Meteor 1-28 Rocket 3.4 15:20:48 21° NNE 15:23:12 69° WNW 15:26:58 10° SSW
Exosat Rocket 3.9 15:19:58 10° SSW 15:24:44 46° ESE 15:26:52 31° ENE
Cosmos 1707 Rocket 3.8 15:20:32 10° SSW 15:25:01 71° WNW 15:28:24 17° NNE
COBE Rocket 4.0 15:23:29 29° NE 15:25:23 45° E 15:29:54 10° S
Ariane Rocket 3.2 15:23:27 19° ESE 15:26:47 48° NE 15:31:38 10° NNW
ARGOS 3.8 15:26:09 31° ENE 15:27:24 35° NE 15:32:13 10° NNW
SPOT 3 Rocket 4.2 15:26:37 31° ENE 15:27:37 34° NE 15:32:15 10° NNW
Cosmos 1666 4.0 15:29:20 10° NNW 15:32:53 40° W 15:36:24 10° SSW
SMAP 3.9 15:28:55 10° S 15:33:30 53° WSW 15:38:06 10° NNW
CSL-04 Debris 4.1 15:28:05 10° SE 15:33:32 76° ENE 15:38:58 10° NNW
H-2A R/B 3.6 15:31:31 10° S 15:35:07 49° WSW 15:38:46 10° NNW
Cosmos 1315 Rocket 3.5 15:31:09 10° SW 15:35:09 53° WNW 15:37:40 21° NNE
Cosmos 1400 Rocket 4.2 15:32:07 10° WSW 15:35:48 33° NW 15:38:16 17° N
Okean O Rocket 3.8 15:34:11 10° SSW 15:37:57 27° W 15:41:43 10° NNW
Okean 1-7 3.2 15:35:30 10° S 15:39:43 47° E 15:40:17 44° ENE
Cosmos 2237 4.2 15:34:38 10° WSW 15:40:24 81° NNW 15:43:06 33° NE
APEX 3.1 15:37:32 10° WNW 15:40:38 54° N 15:40:46 54° NNE
Meteor 1-10 Rocket 4.3 15:35:01 10° SSW 15:40:39 81° WNW 15:45:17 16° NNE
H-2A R/B 3.2 15:38:42 17° N 15:41:22 36° NW 15:45:08 10° WSW
Cosmos 1300 Rocket 3.4 15:37:06 10° NNW 15:41:28 76° ENE 15:45:48 10° SSE
CZ-4 R/B 1.1 15:38:59 10° SSE 15:42:50 86° ENE 15:46:44 10° NNW
Cosmos 1975 2.9 15:39:23 10° NNW 15:43:24 79° WSW 15:47:24 10° SSE
SL-08 R/B 4.3 15:39:45 15° NNE 15:43:32 44° NW 15:48:10 10° WSW
COSMO-SKYMED 1 4.5 15:46:20 16° SE 15:46:20 16° SE 15:47:25 10° SSE
Cosmos 1092 Rocket 3.9 15:37:37 10° S 15:43:49 68° E 15:49:49 11° NNE
Cosmos 2242 Rocket 3.5 15:42:16 10° S 15:46:52 78° ESE 15:49:08 30° NNE
Meteor 2-9 Rocket 4.3 15:41:19 10° NNW 15:47:15 83° WSW 15:53:05 10° SSE
Meteor 1-12 Rocket 4.2 15:41:39 10° NNW 15:47:37 84° ENE 15:53:27 10° SSE
YAOGAN 6 2.6 15:44:13 10° SSE 15:47:51 79° WSW 15:51:33 10° NNW
Cosmos 1544 2.9 15:45:03 10° NNW 15:48:41 74° ENE 15:49:13 60° SE
Cosmos 1455 Rocket 4.4 15:45:55 10° NNW 15:48:25 25° NNE 15:48:25 25° NNE
COSMOS 2428 2.6 15:45:16 10° SW 15:50:59 79° SE 15:53:18 38° ENE
Cosmos 1655 Rocket 4.3 15:45:32 10° SSE 15:51:19 41° E 15:54:00 27° NE
NOSS 2-2 (D) 4.1 15:47:08 10° WSW 15:51:23 58° S 15:53:18 35° ESE
CZ-4B R/B 2.3 15:50:50 30° N 15:52:15 49° WNW 15:55:39 10° SW
Cosmos 841 Rocket 3.4 15:48:38 10° NW 15:53:53 85° NE 15:56:45 27° SE
Meteor 1-27 Rocket 3.8 15:48:20 10° SSW 15:54:14 89° WNW 15:58:50 18° NNE
YAOGAN 1 2.5 15:53:02 10° SSE 15:57:23 88° WSW 16:01:46 10° NNW
Lacrosse 4 Rocket 1.9 15:53:55 10° WNW 15:57:59 56° SW 15:59:49 30° SSE
Cosmos 1656 Rocket 4.0 15:54:03 10° NW 15:59:26 63° SW 16:04:37 11° SSE
Cosmos 1269 Rocket 4.2 15:55:16 10° WSW 16:00:34 66° NW 16:02:46 35° NE
NOAA 11 4.1 15:56:02 10° SSE 16:01:33 85° ENE 16:07:06 10° NNW
Cosmos 2333 4.2 15:56:38 10° WSW 16:02:27 85° NNW 16:04:40 40° NE
Cosmos 2369 3.8 15:57:08 10° WNW 16:02:51 63° NNE 16:04:32 44° ENE
Cosmos 540 Rocket 3.3 15:58:40 10° NW 16:03:49 85° NE 16:06:00 36° SE
Cosmos 2360 Rocket 2.3 15:58:23 10° WSW 16:04:06 71° NNW 16:06:09 40° NE
Okean-O 3.6 16:00:33 10° S 16:04:51 47° W 16:09:11 10° NNW
Okean 1 Rocket 2.9 16:00:36 10° NNW 16:04:56 63° ENE 16:05:01 63° ENE
Terra 3.6 16:06:31 18° N 16:06:31 18° N 16:09:03 10° NNW
Cosmos 2369 Rocket 3.4 16:00:38 10° NW 16:05:53 41° WSW 16:11:09 10° S
S3M 4.0 16:00:42 10° NNW 16:06:59 83° WSW 16:13:10 10° S
MOS 1 4.2 16:04:19 31° SE 16:07:04 64° NE 16:12:44 10° NNW
Cosmos 2322 3.7 16:01:37 10° WSW 16:07:21 79° NNW 16:09:21 42° NE
Cosmos 1680 Rocket 4.3 16:02:25 10° WNW 16:07:26 40° N 16:08:38 35° NNE
Meteor 2-15 4.5 16:02:36 10° NNW 16:08:40 56° ENE 16:11:00 36° ESE
SL-16 R/B 3.7 16:05:27 16° NNE 16:09:39 36° NW 16:15:11 10° W
Cosmos 2278 3.9 16:04:11 10° WNW 16:09:53 61° N 16:11:21 46° ENE
Cosmos 1980 Rocket 2.4 16:05:11 10° WNW 16:10:51 59° N 16:12:19 45° ENE
PSLV R/B 3.8 16:11:32 58° NNE 16:12:21 89° W 16:16:30 10° SSW
Cosmos 1743 4.2 16:09:48 10° NNW 16:13:24 37° W 16:17:00 10° SSW
Cosmos 1140 Rocket 4.3 16:10:41 10° S 16:14:11 33° SE 16:14:11 33° SE
Cosmos 1428 Rocket 4.4 16:09:20 10° S 16:15:33 71° E 16:21:13 13° NNE
Nadezhda 4 Rocket 4.2 16:09:48 10° SSW 16:16:08 73° WNW 16:22:10 11° NNE
SJ-11-01 4.2 16:16:05 61° ENE 16:16:12 61° ENE 16:20:56 10° NNW
NOSS 0 Rocket 3.9 16:10:39 10° SW 16:16:52 70° SE 16:18:44 46° ENE
Cosmos 1553 Rocket 4.4 16:10:40 10° NNW 16:16:59 67° W 16:23:20 10° S
Resurs 01 Rocket 3.2 16:20:06 23° N 16:20:06 23° N 16:22:14 10° NNW
Transit 2A Rocket 4.4 16:14:08 10° WSW 16:18:27 70° SSE 16:18:35 69° SE
Cosmos 2151 Rocket 3.8 16:16:32 10° NNW 16:20:58 68° WSW 16:25:20 10° S
NOSS 3-4 (A) 3.7 16:15:42 10° WSW 16:21:56 64° S 16:24:03 43° ESE
NOSS 3-4 (C) 3.7 16:15:49 10° WSW 16:22:03 63° SSE 16:24:09 43° ESE
Cosmos 2266 Rocket 4.4 16:16:04 10° SSE 16:29:49 - NNE 16:21:05 42° ESE
Envisat 4.1 16:17:59 10° S 16:22:52 45° W 16:27:47 10° NNW
IRS-1A Rocket 4.3 16:19:13 17° SSE 16:23:59 83° ENE 16:29:58 10° NNW
Cosmos 1943 Rocket 3.9 16:19:20 10° NW 16:24:18 32° WSW 16:29:12 10° S
SL-16 R/B 2.5 16:18:58 10° SSW 16:24:21 46° SE 16:24:21 46° SE
CZ-2D R/B 3.3 16:25:10 76° W 16:25:10 76° W 16:28:53 10° NNW
Meteor 1-18 Rocket 4.1 16:19:41 10° S 16:25:15 65° ESE 16:26:31 50° NE
Cosmos 1689 Rocket 3.8 16:27:21 33° WNW 16:27:21 33° WNW 16:29:56 10° WSW
NOSS 2-2 (C) 4.2 16:24:45 10° W 16:29:06 57° S 16:30:02 49° SE
RESURS DK-1 2.4 16:25:40 10° WSW 16:29:38 80° W 16:29:38 80° W
Cosmos 1939 Rocket 2.9 16:30:13 74° WSW 16:30:15 74° WSW 16:34:10 10° NNW
Cosmos 2237 Rocket 2.1 16:25:23 10° SW 16:31:04 75° SE 16:32:03 60° ENE
Cosmos 2251 Rocket 3.5 16:25:58 10° SW 16:31:16 83° NW 16:32:27 55° NE
COSMOS 2455 2.8 16:25:44 10° W 16:31:48 88° N 16:33:10 57° E
Cosmos 407 Rocket 3.7 16:27:13 10° SSW 16:31:56 53° SE 16:31:56 53° SE
Cosmos 220 Rocket 4.1 16:28:36 10° NW 16:33:05 77° SW 16:33:29 70° S
Cosmos 2322 Rocket 2.4 16:28:43 10° W 16:34:20 59° N 16:35:27 50° NE
Cosmos 2219 Rocket 2.2 16:30:27 10° WSW 16:36:07 79° NNW 16:37:23 56° NE
Cosmos 1697 Rocket 2.6 16:31:00 10° WNW 16:36:39 68° NNE 16:37:19 62° ENE
Cosmos 2026 Rocket 3.8 16:30:49 10° SSW 16:36:54 89° W 16:41:57 16° NNE
Cosmos 1812 4.1 16:33:21 10° SW 16:37:00 37° WNW 16:38:03 31° NNW
Lacrosse 5 rocket 3.3 16:36:57 10° SW 16:39:35 20° S 16:39:35 20° S
Cosmos 1656 3.4 16:35:33 10° WNW 16:41:01 77° NNE 16:41:32 71° E
Cosmos 773 Rocket 4.3 16:36:10 10° NW 16:41:18 51° NNE 16:41:18 51° NNE
Aureole 2 Rocket 4.0 16:38:36 10° NW 16:40:49 31° W 16:40:49 31° W
ERS-1 Rocket 4.4 16:43:42 24° N 16:43:42 24° N 16:46:30 10° NNW
Cosmos 2333 Rocket 2.2 16:36:33 10° WSW 16:42:22 78° NNW 16:43:33 57° NE
Cosmos 1814 Rocket 4.3 16:38:23 10° NW 16:43:36 65° SW 16:45:33 37° S
Cosmos 2360 4.2 16:39:48 10° WNW 16:45:34 67° NNE 16:46:06 63° NE
SL-16 R/B 2.4 16:40:43 10° W 16:46:21 59° N 16:47:05 54° NNE
Cosmos 405 Rocket 4.4 16:43:43 10° NNW 16:47:03 32° W 16:50:23 10° SSW
SeaSat 1 2.6 16:46:55 55° SSE 16:47:53 69° SW 16:52:50 10° NW
NOSS 2-2 (E) 4.4 16:44:48 10° W 16:49:20 56° S 16:49:57 52° SSE
Meteor 2-15 Rocket 4.3 16:44:40 10° NNW 16:50:49 73° ENE 16:51:46 62° ESE
CSL-04 Rocket 4.5 16:45:51 10° S 16:51:00 50° WSW 16:56:15 10° NNW
CZ-2C R/B 3.6 16:52:45 40° N 16:52:45 40° N 16:56:03 10° NNW
Cosmos 1703 Rocket 4.0 16:47:39 10° SW 16:52:06 62° WNW 16:52:43 55° NNW
Cosmos 2315 Rocket 4.1 16:49:31 10° NNW 16:55:55 78° WSW 17:02:12 10° S
H-2A R/B 2.1 16:58:07 62° N 16:58:07 62° N 17:02:16 10° NNW
ATLAS 2AS CENTAUR R/B 3.0 16:51:50 10° W 16:59:50 71° S 17:01:46 53° ESE
Cosmos 1538 Rocket 4.4 16:54:32 10° NW 16:59:22 51° N 16:59:22 51° N
Aureole 1 Rocket 4.4 16:56:39 10° SW 16:58:12 26° SW 16:58:12 26° SW
Meteor 1-15 Rocket 4.3 16:54:31 10° NNW 17:00:10 75° WSW 17:02:51 33° S
Cosmos 1980 3.5 16:57:46 10° SW 17:03:28 88° NW 17:03:47 81° NE
COBE Rocket 4.3 17:02:58 44° NNW 17:04:03 55° WNW 17:08:38 10° SW
Ariane Rocket 3.4 17:03:38 34° S 17:05:44 62° WSW 17:10:48 10° NNW
SPOT 3 Rocket 3.6 17:07:15 69° N 17:07:15 69° N 17:11:51 10° NNW
ARGOS 3.1 17:07:40 76° N 17:07:40 76° N 17:12:41 10° NNW
USA 215 4.1 17:10:07 32° SSE 17:10:07 32° SSE 17:15:36 10° SW
Meteor 1-19 Rocket 4.2 17:08:00 10° SSW 17:12:46 69° SSW 17:12:46 69° SSW
Meteor 1-22 Rocket 4.2 17:09:22 10° NNW 17:15:06 83° NE 17:15:06 83° NE
H-2A R/B 4.3 17:15:47 16° NNW 17:16:30 17° NNW 17:19:08 10° WNW
Okean 1-7 3.9 17:13:06 10° SW 17:17:10 48° WNW 17:17:10 48° WNW
CZ-4 R/B 3.6 17:15:15 10° SW 17:18:23 23° W 17:21:34 10° NW
Meteor 2-13 Rocket 4.3 17:16:35 10° SSW 17:22:41 88° WNW 17:23:39 66° NNE
CZ-4B R/B 4.2 17:24:06 17° NW 17:24:06 17° NW 17:26:19 10° W
Cosmos 2237 4.5 17:19:30 10° W 17:25:06 60° N 17:25:06 60° N
Exosat Rocket 3.8 17:20:56 10° WSW 17:25:58 72° NNW 17:25:58 72° NNW
Nadezhda 1 Rocket 4.0 17:29:02 10° NNW 17:34:21 67° N 17:34:21 67° N
COSMOS 2428 3.0 17:29:52 10° W 17:35:19 63° NNW 17:35:19 63° NNW
Lacrosse 4 Rocket 3.6 17:32:52 10° WNW 17:36:04 22° WSW 17:36:09 22° SW
Cosmos 1655 Rocket 4.0 17:30:26 10° SSW 17:36:43 76° WNW 17:39:00 42° N
Terra 3.9 17:45:24 18° N 17:45:24 18° N 17:46:52 10° NNW
Cosmos 2369 4.0 17:41:36 10° NW 17:46:28 64° WNW 17:46:28 64° WNW
Cosmos 2360 Rocket 2.7 17:43:03 10° WNW 17:47:55 54° NNW 17:47:55 54° NNW
SL-16 R/B 4.1 17:50:33 23° NNE 17:52:02 25° N 17:56:54 10° WNW
Cosmos 2322 4.2 17:46:24 10° W 17:51:17 54° NW 17:51:17 54° NW
Cosmos 2278 4.2 17:48:40 10° NW 17:53:15 59° WNW 17:53:15 59° WNW
Resurs 01 Rocket 3.9 17:57:40 19° NNW 17:57:40 19° NNW 17:58:58 10° NNW
Cosmos 1980 Rocket 2.7 17:49:36 10° WNW 17:54:05 56° NW 17:54:05 56° NW
NOSS 0 Rocket 4.2 17:57:13 10° WSW 18:02:44 66° WNW 18:02:44 66° WNW
SL-16 R/B 3.2 18:02:35 10° WSW 18:06:14 41° WSW 18:06:14 41° WSW
NOSS 3-4 (A) 4.0 18:06:08 10° W 18:11:30 55° SW 18:11:30 55° SW
NOSS 3-4 (C) 4.0 18:06:15 10° W 18:11:35 55° SW 18:11:35 55° SW
Cosmos 2237 Rocket 3.0 18:09:42 10° W 18:13:53 47° WNW 18:13:53 47° WNW
COSMOS 2455 3.5 18:11:47 10° WNW 18:16:18 51° W 18:16:18 51° W
Cosmos 2322 Rocket 3.2 18:13:20 10° WNW 18:17:15 44° NW 18:17:15 44° NW
Cosmos 2219 Rocket 3.2 18:15:01 10° W 18:19:06 44° NW 18:19:06 44° NW
Cosmos 1697 Rocket 3.7 18:15:11 10° NW 18:19:03 44° WNW 18:19:03 44° WNW
SeaSat 1 4.3 18:26:43 26° WSW 18:26:43 26° WSW 18:30:21 10° NW
Cosmos 2333 Rocket 3.2 18:21:26 10° W 18:25:33 44° WNW 18:25:33 44° WNW
SL-16 R/B 3.3 18:25:20 10° WNW 18:28:56 40° NW 18:28:56 40° NW
H-2A R/B 3.8 18:38:44 28° WNW 18:38:44 28° WNW 18:41:45 10° NNW
ATLAS 2AS CENTAUR R/B 3.5 18:42:43 10° WNW 18:49:12 51° WSW 18:49:12 51° WSW
Cosmos 2360 Rocket 4.2 19:27:31 10° WNW 19:29:41 24° NW 19:29:41 24° NW
SL-16 R/B 4.3 19:35:38 24° N 19:35:38 24° N 19:39:13 10° NW
Cosmos 1980 Rocket 4.3 19:33:44 10° NW 19:35:51 22° WNW 19:35:51 22° WNW
